Flag Weather past 2 weeks in Cheyenne, Wyoming, U.S.A.

Now
32 °F

Clear.


Feels Like: 26 °F
Forecast: 32 / 49 °F
Wind: 7 mph from West

Location: Cheyenne Airport

Current Time: Nov 21, 2014 at 8:26:19 PM

Latest Report: Nov 21, 2014 at 7:53 PM


Visibility: 10 mi

Pressure: 29.95 "Hg

Humidity: 54%

Dew point: 17 °F

Location of CheyenneLocation

Historic Weather in Cheyenne — Graph

°F

Cheyenne temperature yesterday

Maximum temperature yesterday: 51 °F (at 1:53 PM)
Minimum temperature yesterday: 23 °F (at 1:53 AM)
Average temperature yesterday: 36 °F

Past Weeks' High & Low Weather Summary

 TemperatureHumidityPressure
High64 °F (Nov 9, 2:53 PM)88% (Nov 8, 1:53 AM)30.80 "Hg (Nov 8, 1:53 AM)
Low-13 °F (Nov 13, 1:53 AM)17% (Nov 8, 2:53 PM)29.28 "Hg (Nov 10, 3:53 AM)
Average26 °F52%30.12 "Hg
* Reported Nov 6 6:53 PM — Nov 21 6:53 PM, Cheyenne, Weather by CustomWeather, © 2014

Note: Actual official high and low records may vary slightly from our data, if they occured in-between our weather recording intervals... More about our weather records

Advertising

Cheyenne weather history for previous 24 hours

 ConditionsComfort  
Time TempWeatherWind HumidityBarometerVisibility
6:53 PM
Nov 21
35 °FClear.9 mph48%29.95 "Hg10 mi
5:53 PM43 °FClear.10 mph34%29.91 "Hg10 mi
4:53 PM43 °FClear.12 mph35%29.89 "Hg10 mi
3:53 PM48 °FSunny.7 mph28%29.85 "Hg10 mi
2:53 PM50 °FSunny.14 mph25%29.84 "Hg10 mi
1:53 PM51 °FSunny.16 mph24%29.82 "Hg10 mi
12:53 PM51 °FSunny.16 mph25%29.82 "Hg10 mi
11:53 AM51 °FSunny.22 mph24%29.83 "Hg10 mi
10:53 AM49 °FSunny.18 mph28%29.86 "Hg10 mi
9:53 AM48 °FSunny.24 mph30%29.89 "Hg10 mi
8:53 AM44 °FSunny.13 mph35%29.93 "Hg10 mi
7:53 AM41 °FMostly cloudy.12 mph39%29.96 "Hg10 mi
6:53 AM38 °FClear.9 mph45%29.96 "Hg10 mi
5:53 AM37 °FOvercast.12 mph46%29.91 "Hg10 mi
4:53 AM39 °FOvercast.10 mph45%29.88 "Hg10 mi
3:53 AM39 °FOvercast.10 mph46%29.88 "Hg10 mi
2:53 AM38 °FPassing clouds.10 mph46%29.87 "Hg10 mi
1:53 AM39 °FPassing clouds.12 mph46%29.87 "Hg10 mi
12:53 AM40 °FOvercast.13 mph45%29.88 "Hg10 mi
11:53 PM
Nov 20
41 °FOvercast.14 mph43%29.89 "Hg10 mi
10:53 PM41 °FMostly cloudy.9 mph43%29.89 "Hg10 mi
9:53 PM37 °FOvercast.10 mph48%29.93 "Hg10 mi
8:53 PM34 °FPassing clouds.3 mph48%29.97 "Hg9 mi
Weather by CustomWeather, © 2014

See weather overviewHow to use our weather pages